User: anonymous   Login
Location: Unspecified
(0.0000°N, 0.0000°E)
Time: 21:42:49
(UTC+00:00)
Language:

FALCONSAT 3 - Orbit

View from above orbital plane
View from above orbital plane
View from above satellite
View from above satellite

Ground track
Ground track

The orbit data is extracted from the following two-line orbital elements,

1 30776U 07006E   18048.14816731 +.00003040 +00000-0 +91922-4 0  9992
2 30776 035.4366 310.5964 0002899 002.4238 357.6502 15.33920823605877
Epoch (UTC): 17 February 2018 03:33:21
Eccentricity: 0.0002899
inclination: 35.4366°
perigee height: 462 km
apogee height: 466 km
right ascension of ascending node: 310.5964°
argument of perigee: 2.4238°
revolutions per day: 15.33920823
mean anomaly at epoch: 357.6502°
orbit number at epoch: 60587

The dashed part of the orbit path shows where the satellite is in the earth's shadow,  

DLR